Location: Clanezzo
(45.7500°N, 9.6000°E)
Time: 10:04:21
(UTC+00:00)

CUTE-I - Pass Details

Date: 04 December 2023
Orbit: 807 x 822 km, 98.7° (Epoch: 23 February)

Event Time Altitude Azimuth Distance (km) Brightness Sun altitude
Rises 17:01:07 0° 175° (S) 3,311 ? -14.0°
Reaches altitude 10° 17:03:28 10° 179° (S) 2,386 ? -14.4°
Maximum altitude 17:08:41 59° 259° (W) 932 ? -15.2°
Drops below altitude 10° 17:13:57 10° 339° (NNW) 2,412 ? -16.1°
Sets 17:16:21 0° 343° (NNW) 3,351 ? -16.5°
